Regional Weather Roundup
Issued by NWS

Home | Current Version | Previous Version | Text Only | Print | Product List | Glossary Off
Versions: 1 2 3 4 5 6 7 8 9 10 11 12 13 14 15 16 17 18 19 20 21 22 23 24 25 26 27 28 29 30 31 32 33 34 35 36 37 38 39 40 41 42 43 44 45 46 47 48 49 50

000
ASUS43 KTOP 250608
RWRKS

WEATHER ROUNDUP FOR KANSAS
NATIONAL WEATHER SERVICE GOODLAND KS
100 AM CDT SUN SEP 25 2016

NOTE:  "FAIR" INDICATES FEW OR NO CLOUDS BELOW 12,000 FEET WITH NO
SIGNIFICANT WEATHER AND/OR OBSTRUCTIONS TO VISIBILITY.

KSZ001>006-013>018-027>032-041>047-250700-
NORTHWEST KANSAS

CITY           SKY/WX    TMP DP  RH WIND       PRES   REMARKS
GOODLAND       CLEAR     53  42  66 N9        30.18R
6HR MIN TEMP:  53; 6HR MAX TEMP:  74;

HAYS           CLOUDY    61  54  77 CALM      30.05R VSB 1/4
HILL CITY      CLEAR     53  50  89 W5        30.07R
6HR MIN TEMP:  53; 6HR MAX TEMP:  75;

RUSSELL        PTCLDY    64  63  96 SW6       30.02R
6HR MIN TEMP:  64; 6HR MAX TEMP:  72; 6HR PCP:  0.01;

$$

KSZ061>065-074>080-084>089-250700-
SOUTHWEST KANSAS

CITY           SKY/WX    TMP DP  RH WIND       PRES   REMARKS
DODGE CITY     FOG       58  57  97 CALM      30.06R VSB 1/4
6HR MIN TEMP:  56; 6HR MAX TEMP:  73; 6HR PCP:  0.01;

ELKHART          N/A     60  39  45 E8          N/A
GARDEN CITY    CLEAR     59  48  67 NE10      30.07R
6HR MIN TEMP:  57; 6HR MAX TEMP:  78;

GREAT BEND     PTCLDY    64  57  77 SW5       30.03R
LIBERAL        CLEAR     64  57  77 NE7       30.06S
PRATT          RAIN      64  62  94 SW5       30.03F
6HR MIN TEMP:  63; 6HR MAX TEMP:  65;

$$

KSZ066>073-081>083-090>101-250700-
SOUTHEAST KANSAS

CITY           SKY/WX    TMP DP  RH WIND       PRES   REMARKS
CHANUTE        LGT RAIN  68  67  96 SE7       30.05S
6HR MIN TEMP:  68; 6HR MAX TEMP:  83; 6HR PCP:  0.23;

COFFEYVILLE    MOCLDY    69  68  96 NE6       30.03F
6HR MIN TEMP:  69; 6HR MAX TEMP:  84; 6HR PCP:  0.02;

HUTCHINSON     CLOUDY    66  65  96 S6        30.02R
6HR MIN TEMP:  65; 6HR MAX TEMP:  70; 6HR PCP:  0.13;

MEDICINE LODGE   N/A     65  65 100 VRB3        N/A
NEWTON         CLOUDY   N/A N/A N/A SE7       30.03S
PARSONS        CLOUDY    69  67  93 N5        30.05F
6HR MIN TEMP:  69; 6HR MAX TEMP:  84; 6HR PCP:  0.09;

WICHITA INTL   LGT RAIN  68  68 100 E7        30.02S
6HR MIN TEMP:  67; 6HR MAX TEMP:  71; 6HR PCP:  0.52;

WICHITA JABRA  CLOUDY    67  67 100 W5        30.04R
6HR MIN TEMP:  66; 6HR MAX TEMP:  70; 6HR PCP:  0.47;

WICHITA MCCONL LGT RAIN  68  66  94 VRB2      30.03R FOG
WINFIELD       HVY RAIN  67  67 100 E13       30.00F FOG
6HR MIN TEMP:  67; 6HR MAX TEMP:  68;

$$

KSZ007>012-019>026-033>040-048>060-102>105-250700-
NORTHEAST KANSAS

CITY           SKY/WX    TMP DP  RH WIND       PRES   REMARKS
CONCORDIA      LGT RAIN  68  68 100 SW6       30.00S
6HR MIN TEMP:  68; 6HR MAX TEMP:  70; 6HR PCP:  0.03;

EMPORIA        LGT RAIN  68  67  96 SW7       30.06R
6HR MIN TEMP:  66; 6HR MAX TEMP:  73; 6HR PCP:  1.21;

LAWRENCE       LGT RAIN  68  68 100 E6        30.00F
6HR MIN TEMP:  68; 6HR MAX TEMP:  74; 6HR PCP:  1.13;

MANHATTAN      CLOUDY    70  68  93 SW9       30.01R
6HR MIN TEMP:  68; 6HR MAX TEMP:  71; 6HR PCP:  0.24;

MARYSVILLE     CLOUDY    68  68 100 S6        29.99R
OLATHE IND     HVY RAIN  69  69 100 SW5       30.05R FOG
6HR MIN TEMP:  69; 6HR MAX TEMP:  81; 6HR PCP:  0.09;

OLATHE EXE     CLOUDY    69  67  93 W3        30.04R
6HR MIN TEMP:  69; 6HR MAX TEMP:  81; 6HR PCP:  0.05;

SALINA         CLOUDY    70  67  90 CALM      30.02R
6HR MIN TEMP:  69; 6HR MAX TEMP:  71; 6HR PCP:  0.06;

TOPEKA BILLARD RAIN      68  67  96 S5        30.01R
6HR MIN TEMP:  68; 6HR MAX TEMP:  72; 6HR PCP:  1.94;

TOPEKA FORBES    N/A    N/A N/A N/A MISG      30.02R
$$




USA.gov is the U.S. government's official web portal to all federal, state and local government web resources and services.